User: anonymous   Login
Location: Unspecified
(0.0000°N, 0.0000°E)
Time: 18:20:09
(UTC+00:00)
Language:

GONETS M 08 (M18) - Orbit

View from above orbital plane
View from above orbital plane
View from above satellite
View from above satellite

Ground track
Ground track

The orbit data is extracted from the following two-line orbital elements,

1 40061U 14036A   21025.73247468 -.00000002  00000-0 -85068-4 0  9991
2 40061  82.5106  90.2200 0030617 123.4350 236.9656 12.42900740297928
Epoch (UTC): 25 January 2021 17:34:45
Eccentricity: 0.0030617
inclination: 82.5106°
perigee height: 1470 km
apogee height: 1518 km
right ascension of ascending node: 90.2200°
argument of perigee: 123.4350°
revolutions per day: 12.42900740
mean anomaly at epoch: 236.9656°
orbit number at epoch: 29792

The dashed part of the orbit path shows where the satellite is in the earth's shadow,  

DLR